Regional Weather Roundup
Issued by NWS Grand Forks, ND

Home | Current Version | Previous Version | Text Only | Print | Product List | Glossary Off
Versions: 1 2 3 4 5 6 7 8 9 10 11 12 13 14 15 16 17 18 19 20 21 22 23 24 25 26 27 28 29 30 31 32 33 34 35 36 37 38 39 40 41 42 43 44 45 46 47 48 49 50

000
ASUS43 KFGF 230810
RWRFGF
PRAIRIE TO PINES  WEATHER ROUNDUP
NATIONAL WEATHER SERVICE EASTERN NORTH DAKOTA/GRAND FORKS ND
300 AM CDT SUN APR 23 2017

 **SATELLITE DATA USED TO AUGMENT SKY COVER AT AUTOMATED STATIONS**
 *****  WEATHER ACROSS EASTERN NORTH DAKOTA  *****

CITY           SKY/WX    TMP DP  RH WIND       PRES   REMARKS
GRAND FORKS    CLOUDY    33  22  63 N18       30.24S WCI  22
GRAND FRKS AFB CLOUDY    31  19  61 NE17G23   30.25S WCI  19
DEVILS LAKE    CLOUDY    29  18  63 NE18      30.22F WCI  16
FARGO          CLOUDY    35  32  88 N15       30.17S
WAHPETON ARPT  CLOUDY    37  34  87 N13       30.12F
$$

 ***** WEATHER ACROSS CENTRAL AND WESTERN NORTH DAKOTA  *****

CITY           SKY/WX    TMP DP  RH WIND       PRES   REMARKS
BISMARCK       CLOUDY    37  32  82 E18G24    30.13S
MINOT          FLURRIES  32  25  75 NE15      30.18F WCI  22
JAMESTOWN      CLOUDY    32  27  81 NE15      30.17S WCI  22
MINOT AFB      CLOUDY    31  26  83 E22G29    30.17F WCI  18
GARRISON         N/A     32  31  96 E16       30.14S WCI  21
WILLISTON      CLOUDY    37  30  75 E13       30.11F
DICKINSON      CLOUDY    34  30  85 E20G26    30.02F WCI  23
HETTINGER      CLOUDY    38  37  97 E21G29    29.98F
$$

 *****  OTHER AIRPORT OBSERVATIONS IN OUR AREA  *****

CITY           SKY/WX    TMP DP  RH WIND       PRES   REMARKS
WALHALLA       NOT AVBL
GRAFTON AIRPOR CLOUDY    30  19  64 N18       30.29S WCI  18
VALLEY CITY AR MIX PCPN  30  28  93 NE17G24   30.20S WCI  18
CANDO          NOT AVBL
CAVALIER APRT  FAIR      28  18  64 N14       30.29R WCI  17
GWINNER        PTSUNNY   36  34  93 MISG      30.14F
SHEYENNE NWR     N/A     34  31  90 NE13      29.95S WCI  25
ROLLA          CLOUDY    27  18  69 NE14      30.24F WCI  15
 ***** THE ABOVE OBSERVATIONS ARE NON NWS ARE NOT QUALITY
       CONTROLLED AND MAY MIS-REPORT RAIN FOR SNOW...
$$

  *****  WEATHER ACROSS NORTHERN MINNESOTA  *****

CITY           SKY/WX    TMP DP  RH WIND       PRES   REMARKS
FLAG ISLAND    NOT AVBL
WARROAD        FAIR      30  23  74 N12       30.25S WCI  21
ROSEAU         FAIR      30  21  69 N13       30.25R WCI  20
HALLOCK        MOCLDY    30  19  64 NE10      30.27S WCI  21
THF RVR FALLS  CLOUDY    31  25  78 NE13      30.23R WCI  21
BAUDETTE       CLOUDY    33  25  72 NE10      30.22R WCI  25
WASKISH        CLOUDY    32  30  93 NE6       30.20S
CROOKSTON      CLOUDY    32  25  74 NE12      30.23S WCI  23
STEPHEN NDAWN    N/A     30  18  59 N10         N/A  WCI  21
GREENBUSH NDAW   N/A     28  21  74 N10         N/A  WCI  19
$$
  *****  WEATHER ACROSS CENTRAL AND WEST MINNESOTA  *****

CITY           SKY/WX    TMP DP  RH WIND       PRES   REMARKS
FOSSTON        CLOUDY    32  28  86 N12G17    30.19S WCI  23
BEMIDJI        CLOUDY    32  29  88 N13G18    30.17R WCI  22
PARK RAPIDS    CLOUDY    38  31  76 NE13      30.13S
ELBOW LAKE     FAIR      45  39  81 NE13      30.09S
WADENA         CLOUDY    39  34  81 NE13G20   30.11R
DETROIT LAKES  CLOUDY    37  36  93 NE7       30.13F
MOORHEAD       CLOUDY    36  34  93 N20       30.17S
FERGUS FALLS   MIX PCPN  43  36  75 NE7G23    30.11F
MORRIS MN      FAIR      41  39  93 NW10      30.08S
STAPLES        CLOUDY    41  36  81 NE8       30.11S
$$
  *****  WEATHER ELSEWHERE ACROSS MINNESOTA  *****

CITY           SKY/WX    TMP DP  RH WIND       PRES   REMARKS
DULUTH         LGT RAIN  41  38  89 N10       30.10R
INTRNTL FALLS  CLOUDY    32  22  66 NE12      30.20R WCI  23
ELY            CLOUDY    32  30  93 N6        30.13R
CLOQUET        CLOUDY    43  36  75 N8        30.11R
WHEATON        FAIR      39  36  87 NW9       30.13S
BRAINERD       CLOUDY    45  37  73 N13       30.11S
HIBBING        LGT RAIN  35  35 100 N9        30.12S
ALEXANDRIA     CLOUDY    46  39  76 NE12      30.09R
SAINT CLOUD    FAIR      50  39  66 NW5       30.06R
MINNEAPOLIS    FAIR      53  35  50 SW5       30.07S
$$

  *****  WEATHER ACROSS SOUTH DAKOTA  *****

CITY           SKY/WX    TMP DP  RH WIND       PRES   REMARKS
SIOUX FALLS    FAIR      50  36  58 SW5       30.12F
BROOKINGS      FAIR      44  36  73 S8        30.10F
WATERTOWN      FAIR      46  38  73 SW9       30.07S
HURON          FAIR      47  38  71 S9        30.07F
SISSETON         N/A     37  35  92 N10       30.11F
ABERDEEN       MOCLDY    36  30  79 NE13      30.11F
MITCHELL       FAIR      50  36  58 S10       30.10F
PIERRE         FAIR      51  29  42 SW14      30.00F
MOBRIDGE       FAIR      41  36  82 E22G32    29.99F
RAPID CITY     FAIR      41  32  70 SE9       29.97F
$$

  *****  SOME WEATHER IN NEARBY STATES *****

CITY           SKY/WX    TMP DP  RH WIND       PRES   REMARKS
GLASGOW MT     MOCLDY    38  33  82 E25G31    29.96F
GREAT FALLS MT FAIR      41  38  89 NE3       29.84F
CHEYENNE WY    FAIR      36  29  75 W7        30.09F
SCOTTSBLUFF NE FAIR      44  29  55 VRB5      30.07F
OMAHA NE       FAIR      44  36  73 CALM      30.17F
DES MOINES IA  FAIR      47  32  56 W3        30.16F
DAVENPORT IA   FAIR      41  33  73 CALM      30.14S
CHICAGO IL     FAIR      40  29  64 CALM      30.12F
EAU CLAIRE WI  FAIR      44  38  79 SW5       30.05F
LA CROSSE WI   FAIR      48  41  76 SE9       30.10F
$$

  *****  SOME NATIONAL WEATHER *****

CITY           SKY/WX    TMP DP  RH WIND       PRES   REMARKS
LA GUARDIA NY  FAIR      49  38  65 N8        30.03S
RALEIGH NC     CLOUDY    55  53  93 NE12      29.97F
ATLANTA GA     MOCLDY    64  59  83 SE6       29.83F
NEW ORLEANS LA MOCLDY    67  61  81 NW12      29.88F
OKLAHOMA CITY  FAIR      46  40  79 NW8       30.17S
ALBUQUERQUE NM FAIR      48  28  46 E18G24    30.24S
SALT LAKE CITY MOCLDY    49  36  61 E7        29.94F
LOS ANGELES CA FAIR      62  57  83 SW7       29.85R
BOISE ID       CLOUDY    61  34  36 S18G30    29.83F
SEATTLE WA     MOCLDY    49  45  86 S8        29.96F
$$

*** WEATHER ACROSS MANITOBA...SASKATCHEWAN AND ONTARIO ***
                ***ONTARIO***

CITY           SKY/WX    TMP DP  RH WIND       PRES   REMARKS
GERALDTON      LGT SNOW  23  19  86 N7        30.10S DRFTSNOWWCI  15
THUNDER BAY    CLOUDY    34  27  75 N12       30.15R
SIOUX LOOKOUT  PTCLDY    23  12  63 N5        30.22R WCI  17
TORONTO        CLEAR     41  27  56 SW2       30.08F
BIG TROUT LK   CLEAR      5  -2  72 NW9       30.26R WCI  -9
PICKLE LAKE    NOT AVBL
DRYDEN         CLEAR     25  16  68 N7        30.22R WCI  17
KENORA         CLEAR     25  14  63 N9        30.25R WCI  15
$$
                *** MANITOBA***

CITY           SKY/WX    TMP DP  RH WIND       PRES   REMARKS
BRANDON        MOCLDY    27  19  74 E7        30.29S WCI  19
DAUPHIN        MOCLDY    23  21  93 W3        30.30S
ISLAND LAKE    CLEAR      9   3  78 NW3       30.33F
PILOT MOUND      N/A     27  12  54 NE15        N/A  WCI  15
THE PAS        CLEAR     19  10  68 NE3       30.34F
THOMPSON       CLEAR     -6 -11  77 W5        30.36S WCI -17
WINNIPEG       MOCLDY    27  19  74 NE6       30.31S WCI  20
LYNN LAKE      CLEAR     -4  -9  77 NW5       30.33F WCI -15
CHURCHILL      FLURRIES  -4  -8  84 NW8       30.34F WCI -19
GILLAM         CLEAR     -8 -13  77 VRB2      30.36R
$$
                ***SASKATCHEWAN***

CITY           SKY/WX    TMP DP  RH WIND       PRES   REMARKS
ESTEVAN        FLURRIES  32  28  86 E16G24    30.17S WCI  21
KINDERSLEY     CLOUDY    32  28  86 E18       30.06S WCI  20
LLOYDMINSTER   CLOUDY    30  23  74 E8        30.12F WCI  23
PRINCE ALBERT  PTCLDY    25  18  74 E10       30.24F WCI  15
REGINA         CLOUDY    36  27  69 E15       30.15F
YORKTON        CLOUDY    30  25  80 SE7       30.24S WCI  23
N. BATTLEFORD  CLOUDY    32  23  69 E15       30.17F WCI  22
LA RONGE       CLEAR     16   9  73 NE5       30.32F WCI   9
SASKATOON      CLOUDY    34  23  64 E10       30.19F
SWIFT CURRENT  CLOUDY    37  32  81 E17G23    30.03F
$$
NOTE: THESE ARE AUTOMATED STATIONS WITH LIMITED QUALITY CONTROL
      "FAIR" INDICATES FEW OR NO CLOUDS BELOW 12,000 FEET WITH NO
      SIGNIFICANT WEATHER AND/OR OBSTRUCTIONS TO VISIBILITY.
      SKY/WX - SKY CONDITION AND SIGNIFICANT WEATHER.
      TMP - AIR TEMPERATURE.    DP   - DEWPOINT TEMPERATURE.
      RH  - RELATIVE HUMIDITY.  PRES - PRESSURE.
      HX  - HEAT INDEX.         WCI  - WIND CHILL INDEX.
$



USA.gov is the U.S. government's official web portal to all federal, state and local government web resources and services.